Location: Paddlesworth
(51.1000°N, 1.1333°E)
Time: 18:40:39
(UTC+00:00)

ERS-2 - Pass Details

Date: 11 May 2021
Orbit: 491 x 496 km, 98.5° (Epoch: 21 June)

Event Time Altitude Azimuth Distance (km) Brightness Sun altitude
Rises 20:17:25 0° 8° (N) 2,588 6.2 -6.4°
Reaches altitude 10° 20:19:36 10° 360° (N) 1,700 5.4 -6.7°
Maximum altitude 20:22:57 35° 293° (WNW) 808 4.0 -7.1°
Drops below altitude 10° 20:26:17 10° 226° (SW) 1,685 4.9 -7.5°
Sets 20:28:27 0° 218° (SW) 2,562 5.7 -7.8°
